This is the latest recevied weather packets stored in our database for station/object KD7AWQ. If no packets are shown the sender has not sent any weather packets the latest 10 day(s).
| Time | Temp. | Humidity | Pressure | Rain* | Wind** | Luminosity | Snow |
|---|---|---|---|---|---|---|---|
| 1788111489 | 30.56° C | 36% | 1189.8 hPa | 0 mm | - | 988 W/m² | - |
| 1788111185 | 30° C | 37% | 1189.8 hPa | 0 mm | - | 982 W/m² | - |
| 1788110881 | 30° C | 38% | 1190 hPa | 0 mm | - | 928 W/m² | - |
| 1788110578 | 29.44° C | 36% | 1190 hPa | 0 mm | - | 928 W/m² | - |
| 1788110274 | 29.44° C | 38% | 1190 hPa | 0 mm | - | 907 W/m² | - |
| 1788109968 | 28.89° C | 39% | 1190 hPa | 0 mm | - | 901 W/m² | - |
| 1788109663 | 28.89° C | 42% | 1190.3 hPa | 0 mm | - | 792 W/m² | - |
| 1788109362 | 28.33° C | 42% | 1190 hPa | 0 mm | - | 757 W/m² | - |
| 1788109061 | 28.33° C | 43% | 1190.1 hPa | 0 mm | - | 746 W/m² | - |
| 1788108757 | 27.78° C | 45% | 1190 hPa | 0 mm | - | 500 W/m² | - |
| 1788108453 | 26.67° C | 45% | 1190 hPa | 0 mm | - | 376 W/m² | - |
| 1788108149 | 26.67° C | 47% | 1189.8 hPa | 0 mm | - | 352 W/m² | - |
| 1788107846 | 26.11° C | 49% | 1189.9 hPa | 0 mm | - | 305 W/m² | - |
| 1788107541 | 26.11° C | 49% | 1190 hPa | 0 mm | - | 294 W/m² | - |
| 1788107236 | 25.56° C | 52% | 1190.1 hPa | 0 mm | - | 311 W/m² | - |
| 1788106932 | 25.56° C | 52% | 1190.4 hPa | 0 mm | - | 335 W/m² | - |
| 1788106627 | 25.56° C | 51% | 1190.1 hPa | 0 mm | - | 319 W/m² | - |
| 1788106327 | 25.56° C | 52% | 1190 hPa | 0 mm | - | 336 W/m² | - |
| 1788106023 | 25.56° C | 52% | 1190.1 hPa | 0 mm | - | 326 W/m² | - |
| 1788105717 | 25.56° C | 53% | 1190.5 hPa | 0 mm | - | 310 W/m² | - |
| 1788105414 | 25° C | 53% | 1190 hPa | 0 mm | - | 311 W/m² | - |
| 1788105109 | 25.56° C | 53% | 1189.9 hPa | 0 mm | - | 293 W/m² | - |
| 1788104804 | 25.56° C | 51% | 1190.1 hPa | 0 mm | - | 325 W/m² | - |
| 1788104500 | 25.56° C | 51% | 1189.9 hPa | 0 mm | - | 458 W/m² | - |
| 1788104197 | 25° C | 52% | 1189.7 hPa | 0 mm | - | 439 W/m² | - |
* Rain latest hour (hover to see other rain measurements)
** Current wind speed in m/s (hover to see current wind gust speed)